Time,TemperatureF,DewpointF,PressureIn,WindDirection,WindDirectionDegrees,WindSpeedMPH,WindSpeedGustMPH,Humidity,HourlyPrecipIn,Conditions,Clouds,dailyrainin,SoftwareType,DateUTC
2013-01-29 00:01:00,0.0,0.0,30.01,North,351,0.0,3.0,0,0.00,,---,0.01,VWS V14.01,2013-01-29 06:01:00,
2013-01-29 00:07:00,0.0,0.0,30.02,NW,306,2.0,2.0,0,0.00,,---,0.00,VWS V14.01,2013-01-29 06:07:00,
2013-01-29 00:13:00,0.0,0.0,30.04,West,280,4.0,5.0,0,0.00,,---,0.00,VWS V14.01,2013-01-29 06:13:00,
2013-01-29 00:19:00,0.0,0.0,30.04,WNW,285,4.0,7.0,0,0.00,,---,0.00,VWS V14.01,2013-01-29 06:19:00,
2013-01-29 00:25:00,0.0,0.0,30.04,WNW,288,2.0,7.0,0,0.00,,---,0.00,VWS V14.01,2013-01-29 06:25:00,
2013-01-29 00:31:00,0.0,0.0,30.05,WNW,290,1.0,7.0,0,0.00,,---,0.00,VWS V14.01,2013-01-29 06:31:00,
2013-01-29 00:38:00,0.0,0.0,30.06,WNW,290,7.0,7.0,0,0.00,,---,0.00,VWS V14.01,2013-01-29 06:38:00,
2013-01-29 00:44:00,0.0,0.0,30.06,WNW,284,0.0,7.0,0,0.00,,---,0.00,VWS V14.01,2013-01-29 06:44:00,
2013-01-29 00:50:00,0.0,0.0,30.06,WNW,292,8.0,9.0,0,0.00,,---,0.00,VWS V14.01,2013-01-29 06:50:00,
2013-01-29 00:56:00,0.0,0.0,30.06,NW,304,5.0,9.0,0,0.00,,---,0.00,VWS V14.01,2013-01-29 06:56:00,
2013-01-29 01:02:00,0.0,0.0,30.07,WNW,288,8.0,8.0,0,0.00,,---,0.00,VWS V14.01,2013-01-29 07:02:00,
2013-01-29 01:08:00,0.0,0.0,30.07,WNW,297,6.0,10.0,0,0.00,,---,0.00,VWS V14.01,2013-01-29 07:08:00,
2013-01-29 01:14:00,0.0,0.0,30.07,WNW,287,6.0,12.0,0,0.00,,---,0.00,VWS V14.01,2013-01-29 07:14:00,
2013-01-29 01:20:00,0.0,0.0,30.08,West,274,12.0,14.0,0,0.00,,---,0.00,VWS V14.01,2013-01-29 07:20:00,
2013-01-29 01:26:00,0.0,0.0,30.08,West,279,8.0,16.0,0,0.00,,---,0.00,VWS V14.01,2013-01-29 07:26:00,
2013-01-29 01:32:00,0.0,0.0,30.09,WNW,290,9.0,9.0,0,0.00,,---,0.00,VWS V14.01,2013-01-29 07:32:00,
2013-01-29 01:38:00,0.0,0.0,30.09,WNW,290,11.0,14.0,0,0.00,,---,0.00,VWS V14.01,2013-01-29 07:38:00,
2013-01-29 01:44:00,0.0,0.0,30.09,NW,304,9.0,14.0,0,0.00,,---,0.00,VWS V14.01,2013-01-29 07:44:00,
2013-01-29 01:50:00,0.0,0.0,30.09,WNW,298,3.0,14.0,0,0.00,,---,0.00,VWS V14.01,2013-01-29 07:50:00,
2013-01-29 01:56:00,0.0,0.0,30.09,NW,305,3.0,14.0,0,0.00,,---,0.00,VWS V14.01,2013-01-29 07:56:00,
2013-01-29 02:02:00,0.0,0.0,30.08,NW,304,10.0,13.0,0,0.00,,---,0.00,VWS V14.01,2013-01-29 08:02:00,
2013-01-29 02:08:00,0.0,0.0,30.03,WNW,294,10.0,15.0,0,0.00,,---,0.00,VWS V14.01,2013-01-29 08:08:00,
2013-01-29 02:14:00,0.0,0.0,29.99,NW,315,12.0,15.0,0,0.00,,---,0.00,VWS V14.01,2013-01-29 08:14:00,
2013-01-29 02:20:00,0.0,0.0,29.95,West,276,10.0,17.0,0,0.00,,---,0.00,VWS V14.01,2013-01-29 08:20:00,
2013-01-29 02:26:00,0.0,0.0,29.92,NW,312,5.0,17.0,0,0.00,,---,0.00,VWS V14.01,2013-01-29 08:26:00,
2013-01-29 02:32:00,35.0,0.0,29.89,WNW,293,10.0,14.0,0,0.00,,---,0.00,VWS V14.01,2013-01-29 08:32:00,
2013-01-29 02:38:00,35.0,0.0,29.86,NW,315,4.0,14.0,0,0.00,,---,0.00,VWS V14.01,2013-01-29 08:38:00,
2013-01-29 02:44:00,35.0,0.0,29.84,WNW,297,6.0,14.0,0,0.00,,---,0.00,VWS V14.01,2013-01-29 08:44:00,
2013-01-29 02:51:00,35.0,0.0,29.82,WNW,296,5.0,14.0,0,0.00,,---,0.00,VWS V14.01,2013-01-29 08:51:00,
2013-01-29 02:57:00,35.0,0.0,29.79,WNW,291,4.0,14.0,0,0.00,,---,0.00,VWS V14.01,2013-01-29 08:57:00,
2013-01-29 03:03:00,35.0,0.0,29.77,West,281,5.0,14.0,0,0.00,,---,0.00,VWS V14.01,2013-01-29 09:03:00,
2013-01-29 03:09:00,35.0,0.0,29.75,WNW,289,3.0,17.0,0,0.00,,---,0.00,VWS V14.01,2013-01-29 09:09:00,
2013-01-29 03:15:00,35.0,0.0,29.73,West,279,4.0,17.0,0,0.00,,---,0.00,VWS V14.01,2013-01-29 09:15:00,
2013-01-29 03:21:00,35.0,0.0,29.73,WNW,294,3.0,17.0,0,0.00,,---,0.00,VWS V14.01,2013-01-29 09:21:00,
2013-01-29 03:27:00,35.0,0.0,29.72,WNW,292,10.0,17.0,0,0.00,,---,0.00,VWS V14.01,2013-01-29 09:27:00,
2013-01-29 03:33:00,35.0,0.0,29.69,NW,315,6.0,6.0,0,0.00,,---,0.00,VWS V14.01,2013-01-29 09:33:00,
2013-01-29 03:39:00,35.0,0.0,29.68,WNW,300,5.0,12.0,0,0.00,,---,0.00,VWS V14.01,2013-01-29 09:39:00,
2013-01-29 03:45:00,35.0,0.0,29.67,NW,310,4.0,12.0,0,0.00,,---,0.00,VWS V14.01,2013-01-29 09:45:00,
2013-01-29 03:51:00,35.0,0.0,29.66,NW,325,7.0,12.0,0,0.00,,---,0.00,VWS V14.01,2013-01-29 09:51:00,
2013-01-29 03:57:00,35.0,0.0,29.66,NW,323,5.0,12.0,0,0.00,,---,0.00,VWS V14.01,2013-01-29 09:57:00,
2013-01-29 04:03:00,35.0,0.0,29.65,NW,314,3.0,10.0,0,0.00,,---,0.00,VWS V14.01,2013-01-29 10:03:00,
2013-01-29 04:09:00,35.0,0.0,29.65,WNW,293,3.0,10.0,0,0.00,,---,0.00,VWS V14.01,2013-01-29 10:09:00,
2013-01-29 04:15:00,35.0,0.0,29.65,NW,317,9.0,11.0,0,0.00,,---,0.00,VWS V14.01,2013-01-29 10:15:00,
2013-01-29 04:21:00,35.0,0.0,29.65,WNW,295,5.0,11.0,0,0.00,,---,0.00,VWS V14.01,2013-01-29 10:21:00,
2013-01-29 04:27:00,35.0,34.2,29.64,West,277,5.0,11.0,97,0.00,,---,0.00,VWS V14.01,2013-01-29 10:27:00,
2013-01-29 04:33:00,35.0,34.2,29.64,NW,304,2.0,4.0,97,0.00,,---,0.00,VWS V14.01,2013-01-29 10:33:00,
2013-01-29 04:39:00,35.0,34.2,29.65,West,275,3.0,7.0,97,0.00,,---,0.00,VWS V14.01,2013-01-29 10:39:00,
2013-01-29 04:45:00,35.0,34.2,29.64,West,281,4.0,7.0,97,0.00,,---,0.00,VWS V14.01,2013-01-29 10:45:00,
2013-01-29 04:51:00,32.2,31.5,29.64,WNW,286,3.0,8.0,97,0.00,,---,0.00,VWS V14.01,2013-01-29 10:51:00,
2013-01-29 04:57:00,32.2,31.5,29.63,WNW,284,2.0,9.0,97,0.00,,---,0.00,VWS V14.01,2013-01-29 10:57:00,
2013-01-29 05:03:00,32.2,31.5,29.64,NW,304,4.0,7.0,97,0.00,,---,0.00,VWS V14.01,2013-01-29 11:03:00,
2013-01-29 05:10:00,32.2,31.5,29.62,WSW,258,4.0,7.0,97,0.00,,---,0.00,VWS V14.01,2013-01-29 11:10:00,
2013-01-29 05:16:00,32.2,31.5,29.62,West,275,4.0,10.0,97,0.00,,---,0.00,VWS V14.01,2013-01-29 11:16:00,
2013-01-29 05:22:00,32.2,31.5,29.61,WNW,289,2.0,10.0,97,0.00,,---,0.00,VWS V14.01,2013-01-29 11:22:00,
2013-01-29 05:28:00,32.2,31.5,29.60,West,279,4.0,10.0,97,0.00,,---,0.00,VWS V14.01,2013-01-29 11:28:00,
2013-01-29 05:34:00,32.2,31.5,29.60,WNW,292,1.0,4.0,97,0.00,,---,0.00,VWS V14.01,2013-01-29 11:34:00,
2013-01-29 05:40:00,31.8,30.8,29.59,WNW,290,5.0,10.0,96,0.00,,---,0.00,VWS V14.01,2013-01-29 11:40:00,
2013-01-29 05:46:00,31.8,30.8,29.59,NW,318,4.0,10.0,96,0.00,,---,0.00,VWS V14.01,2013-01-29 11:46:00,
2013-01-29 05:52:00,31.7,30.7,29.60,WNW,290,2.0,10.0,96,0.00,,---,0.00,VWS V14.01,2013-01-29 11:52:00,
2013-01-29 05:58:00,31.6,30.6,29.61,NNW,327,4.0,10.0,96,0.00,,---,0.00,VWS V14.01,2013-01-29 11:58:00,
2013-01-29 06:04:00,31.6,30.9,29.62,WNW,284,5.0,8.0,97,0.00,,---,0.00,VWS V14.01,2013-01-29 12:04:00,
2013-01-29 06:10:00,31.5,30.8,29.63,WNW,292,4.0,8.0,97,0.00,,---,0.00,VWS V14.01,2013-01-29 12:10:00,
2013-01-29 06:16:00,31.5,30.8,29.63,WNW,296,4.0,8.0,97,0.00,,---,0.00,VWS V14.01,2013-01-29 12:16:00,
2013-01-29 06:22:00,31.4,30.6,29.63,WNW,284,5.0,9.0,97,0.00,,---,0.00,VWS V14.01,2013-01-29 12:22:00,
2013-01-29 06:28:00,31.4,30.6,29.64,WNW,287,1.0,9.0,97,0.00,,---,0.00,VWS V14.01,2013-01-29 12:28:00,
2013-01-29 06:34:00,31.4,30.6,29.66,WNW,284,3.0,6.0,97,0.00,,---,0.00,VWS V14.01,2013-01-29 12:34:00,
2013-01-29 06:40:00,31.4,30.6,29.67,WNW,284,1.0,6.0,97,0.00,,---,0.00,VWS V14.01,2013-01-29 12:40:00,
2013-01-29 06:46:00,31.3,30.5,29.67,WNW,300,6.0,9.0,97,0.00,,---,0.00,VWS V14.01,2013-01-29 12:46:00,
2013-01-29 06:52:00,31.4,30.6,29.68,WNW,288,2.0,9.0,97,0.00,,---,0.00,VWS V14.01,2013-01-29 12:52:00,
2013-01-29 06:58:00,31.4,30.6,29.67,WNW,287,4.0,9.0,97,0.00,,---,0.00,VWS V14.01,2013-01-29 12:58:00,
2013-01-29 07:04:00,31.3,30.5,29.68,WNW,286,4.0,10.0,97,0.00,,---,0.00,VWS V14.01,2013-01-29 13:04:00,
2013-01-29 07:10:00,31.3,30.5,29.67,WNW,290,4.0,10.0,97,0.00,,---,0.00,VWS V14.01,2013-01-29 13:10:00,
2013-01-29 07:16:00,31.3,30.5,29.68,WNW,298,1.0,10.0,97,0.00,,---,0.00,VWS V14.01,2013-01-29 13:16:00,
2013-01-29 07:22:00,31.2,30.2,29.68,NW,316,2.0,10.0,96,0.00,,---,0.00,VWS V14.01,2013-01-29 13:22:00,
2013-01-29 07:28:00,31.2,30.2,29.69,WNW,292,3.0,10.0,96,0.00,,---,0.00,VWS V14.01,2013-01-29 13:28:00,
2013-01-29 07:35:00,31.2,30.2,29.69,WNW,296,3.0,6.0,96,0.00,,---,0.00,VWS V14.01,2013-01-29 13:35:00,
2013-01-29 07:41:00,31.2,30.2,29.70,WNW,290,2.0,6.0,96,0.00,,---,0.00,VWS V14.01,2013-01-29 13:41:00,
2013-01-29 07:47:00,31.2,30.2,29.71,WNW,294,1.0,6.0,96,0.00,,---,0.00,VWS V14.01,2013-01-29 13:47:00,
2013-01-29 07:53:00,31.3,30.5,29.71,West,267,4.0,9.0,97,0.00,,---,0.00,VWS V14.01,2013-01-29 13:53:00,
2013-01-29 07:59:00,31.2,30.2,29.72,WNW,284,5.0,9.0,96,0.00,,---,0.00,VWS V14.01,2013-01-29 13:59:00,
2013-01-29 08:05:00,31.2,30.2,29.72,West,280,3.0,8.0,96,0.00,,---,0.00,VWS V14.01,2013-01-29 14:05:00,
2013-01-29 08:11:00,31.2,30.2,29.72,WNW,293,3.0,9.0,96,0.00,,---,0.00,VWS V14.01,2013-01-29 14:11:00,
2013-01-29 08:17:00,31.2,30.2,29.72,WNW,289,2.0,9.0,96,0.00,,---,0.00,VWS V14.01,2013-01-29 14:17:00,
2013-01-29 08:23:00,31.2,30.2,29.72,WNW,290,1.0,9.0,96,0.00,,---,0.00,VWS V14.01,2013-01-29 14:23:00,
2013-01-29 08:29:00,31.2,30.2,29.72,WNW,290,7.0,9.0,96,0.00,,---,0.00,VWS V14.01,2013-01-29 14:29:00,
2013-01-29 08:35:00,31.1,30.4,29.71,WNW,283,4.0,8.0,97,0.00,,---,0.00,VWS V14.01,2013-01-29 14:35:00,
2013-01-29 08:41:00,31.1,30.4,29.71,WNW,292,4.0,13.0,97,0.00,,---,0.00,VWS V14.01,2013-01-29 14:41:00,
2013-01-29 08:47:00,31.1,30.4,29.71,NW,306,3.0,13.0,97,0.00,,---,0.00,VWS V14.01,2013-01-29 14:47:00,
2013-01-29 08:53:00,31.1,30.4,29.71,WNW,287,4.0,13.0,97,0.00,,---,0.00,VWS V14.01,2013-01-29 14:53:00,
2013-01-29 08:59:00,31.2,30.5,29.71,WNW,291,3.0,13.0,97,0.00,,---,0.00,VWS V14.01,2013-01-29 14:59:00,
2013-01-29 09:05:00,31.2,30.5,29.71,WNW,302,6.0,7.0,97,0.00,,---,0.00,VWS V14.01,2013-01-29 15:05:00,
2013-01-29 09:11:00,31.2,30.5,29.71,WNW,284,3.0,9.0,97,0.00,,---,0.00,VWS V14.01,2013-01-29 15:11:00,
2013-01-29 09:17:00,31.3,30.5,29.70,NW,306,5.0,9.0,97,0.00,,---,0.00,VWS V14.01,2013-01-29 15:17:00,
2013-01-29 09:23:00,31.3,30.5,29.71,WNW,291,2.0,9.0,97,0.00,,---,0.00,VWS V14.01,2013-01-29 15:23:00,
2013-01-29 09:29:00,31.4,30.6,29.71,NW,320,5.0,9.0,97,0.00,,---,0.00,VWS V14.01,2013-01-29 15:29:00,
2013-01-29 09:35:00,31.4,30.6,29.71,WNW,284,3.0,8.0,97,0.00,,---,0.00,VWS V14.01,2013-01-29 15:35:00,
2013-01-29 09:41:00,31.5,30.8,29.71,NNW,342,4.0,9.0,97,0.00,,---,0.00,VWS V14.01,2013-01-29 15:41:00,
2013-01-29 09:48:00,31.6,30.9,29.71,NW,317,4.0,9.0,97,0.00,,---,0.00,VWS V14.01,2013-01-29 15:48:00,
2013-01-29 09:54:00,31.7,31.0,29.70,NW,325,5.0,9.0,97,0.00,,---,0.00,VWS V14.01,2013-01-29 15:54:00,
2013-01-29 10:00:00,31.7,31.0,29.70,NW,317,9.0,11.0,97,0.00,,---,0.00,VWS V14.01,2013-01-29 16:00:00,
2013-01-29 10:06:00,31.8,31.0,29.70,NNW,330,6.0,9.0,97,0.00,,---,0.00,VWS V14.01,2013-01-29 16:06:00,
2013-01-29 10:12:00,32.0,31.2,29.70,NNW,332,7.0,9.0,97,0.00,,---,0.00,VWS V14.01,2013-01-29 16:12:00,
2013-01-29 10:18:00,31.9,31.1,29.70,NW,317,4.0,13.0,97,0.00,,---,0.00,VWS V14.01,2013-01-29 16:18:00,
2013-01-29 10:24:00,31.9,31.1,29.70,NNW,346,3.0,13.0,97,0.00,,---,0.00,VWS V14.01,2013-01-29 16:24:00,
2013-01-29 10:30:00,31.8,31.0,29.70,North,355,4.0,13.0,97,0.00,,---,0.00,VWS V14.01,2013-01-29 16:30:00,
2013-01-29 10:36:00,31.6,30.9,29.71,North,5,4.0,11.0,97,0.00,,---,0.00,VWS V14.01,2013-01-29 16:36:00,
2013-01-29 10:42:00,31.6,30.9,29.71,NNW,344,5.0,11.0,97,0.00,,---,0.00,VWS V14.01,2013-01-29 16:42:00,
2013-01-29 10:48:00,31.6,30.9,29.71,North,360,10.0,12.0,97,0.00,,---,0.00,VWS V14.01,2013-01-29 16:48:00,
2013-01-29 10:54:00,31.7,31.0,29.72,North,5,1.0,13.0,97,0.00,,---,0.00,VWS V14.01,2013-01-29 16:54:00,
2013-01-29 11:01:00,31.6,30.9,29.72,NNW,336,6.0,13.0,97,0.00,,---,0.00,VWS V14.01,2013-01-29 17:01:00,
2013-01-29 11:07:00,31.6,30.9,29.72,NW,319,6.0,9.0,97,0.00,,---,0.00,VWS V14.01,2013-01-29 17:07:00,
2013-01-29 11:13:00,31.7,31.0,29.70,NNW,332,7.0,12.0,97,0.00,,---,0.00,VWS V14.01,2013-01-29 17:13:00,
2013-01-29 11:19:00,31.8,31.0,29.70,NNW,345,7.0,12.0,97,0.00,,---,0.00,VWS V14.01,2013-01-29 17:19:00,
2013-01-29 11:25:00,31.8,31.0,29.70,NNW,340,5.0,12.0,97,0.00,,---,0.00,VWS V14.01,2013-01-29 17:25:00,
2013-01-29 11:31:00,31.8,31.0,29.70,NNW,347,4.0,12.0,97,0.00,,---,0.00,VWS V14.01,2013-01-29 17:31:00,
2013-01-29 11:37:00,31.8,31.0,29.70,NW,320,9.0,10.0,97,0.00,,---,0.00,VWS V14.01,2013-01-29 17:37:00,
2013-01-29 11:43:00,31.9,31.1,29.69,NNW,344,7.0,11.0,97,0.00,,---,0.00,VWS V14.01,2013-01-29 17:43:00,
2013-01-29 11:49:00,32.0,31.2,29.69,NNW,345,4.0,11.0,97,0.00,,---,0.00,VWS V14.01,2013-01-29 17:49:00,
2013-01-29 11:55:00,31.9,31.1,29.69,NNW,341,6.0,11.0,97,0.00,,---,0.00,VWS V14.01,2013-01-29 17:55:00,
2013-01-29 12:01:00,31.8,31.0,29.69,North,355,6.0,11.0,97,0.00,,---,0.00,VWS V14.01,2013-01-29 18:01:00,
2013-01-29 12:07:00,31.6,30.9,29.69,North,350,8.0,13.0,97,0.00,,---,0.00,VWS V14.01,2013-01-29 18:07:00,
2013-01-29 12:13:00,31.8,30.8,29.70,North,355,5.0,13.0,96,0.00,,---,0.00,VWS V14.01,2013-01-29 18:13:00,
2013-01-29 12:19:00,31.9,30.9,29.69,North,360,11.0,13.0,96,0.00,,---,0.00,VWS V14.01,2013-01-29 18:19:00,
2013-01-29 12:25:00,31.8,30.8,29.69,NNE,18,3.0,13.0,96,0.00,,---,0.00,VWS V14.01,2013-01-29 18:25:00,
2013-01-29 12:31:00,31.8,30.8,29.69,NNW,337,7.0,13.0,96,0.00,,---,0.00,VWS V14.01,2013-01-29 18:31:00,
2013-01-29 12:37:00,31.6,30.6,29.69,North,355,9.0,11.0,96,0.00,,---,0.00,VWS V14.01,2013-01-29 18:37:00,
2013-01-29 12:43:00,31.6,30.6,29.69,NNW,346,5.0,11.0,96,0.00,,---,0.00,VWS V14.01,2013-01-29 18:43:00,
2013-01-29 12:49:00,31.7,30.7,29.68,North,355,8.0,11.0,96,0.00,,---,0.00,VWS V14.01,2013-01-29 18:49:00,
2013-01-29 12:56:00,31.8,30.8,29.68,NW,315,7.0,11.0,96,0.00,,---,0.00,VWS V14.01,2013-01-29 18:56:00,
2013-01-29 13:01:00,31.9,30.9,29.67,North,5,6.0,11.0,96,0.00,,---,0.00,VWS V14.01,2013-01-29 19:01:00,
2013-01-29 13:06:00,31.9,30.9,29.67,NNW,343,9.0,11.0,96,0.00,,---,0.00,VWS V14.01,2013-01-29 19:06:00,
2013-01-29 13:12:00,31.8,30.8,29.66,NNW,348,8.0,11.0,96,0.00,,---,0.00,VWS V14.01,2013-01-29 19:12:00,
2013-01-29 13:18:00,31.8,30.8,29.66,NW,321,8.0,12.0,96,0.00,,---,0.00,VWS V14.01,2013-01-29 19:18:00,
2013-01-29 13:24:00,31.7,30.4,29.66,NNW,346,5.0,13.0,95,0.00,,---,0.00,VWS V14.01,2013-01-29 19:24:00,
2013-01-29 13:30:00,31.7,30.4,29.65,NNW,347,9.0,13.0,95,0.00,,---,0.00,VWS V14.01,2013-01-29 19:30:00,
2013-01-29 13:36:00,31.6,30.3,29.65,North,355,14.0,14.0,95,0.00,,---,0.00,VWS V14.01,2013-01-29 19:36:00,
2013-01-29 13:42:00,31.5,30.2,29.66,North,350,4.0,14.0,95,0.00,,---,0.00,VWS V14.01,2013-01-29 19:42:00,
2013-01-29 13:48:00,31.6,30.3,29.65,North,5,4.0,14.0,95,0.00,,---,0.00,VWS V14.01,2013-01-29 19:48:00,
2013-01-29 13:54:00,31.7,30.2,29.65,NNW,329,7.0,16.0,94,0.00,,---,0.00,VWS V14.01,2013-01-29 19:54:00,
2013-01-29 14:00:00,31.8,30.3,29.65,NNW,332,7.0,16.0,94,0.00,,---,0.00,VWS V14.01,2013-01-29 20:00:00,
2013-01-29 14:01:00,31.9,30.4,29.65,North,360,9.0,16.0,94,0.00,,---,0.00,VWS V14.01,2013-01-29 20:01:00,
2013-01-29 14:06:00,31.9,30.4,29.66,North,355,6.0,17.0,94,0.00,,---,0.00,VWS V14.01,2013-01-29 20:06:00,
2013-01-29 14:12:00,32.0,30.2,29.66,North,360,13.0,17.0,93,0.00,,---,0.00,VWS V14.01,2013-01-29 20:12:00,
2013-01-29 14:18:00,32.2,30.4,29.66,NNW,333,4.0,17.0,93,0.00,,---,0.00,VWS V14.01,2013-01-29 20:18:00,
2013-01-29 14:24:00,32.3,30.5,29.66,NNW,348,6.0,17.0,93,0.00,,---,0.00,VWS V14.01,2013-01-29 20:24:00,
2013-01-29 14:30:00,32.4,30.3,29.65,North,355,3.0,17.0,92,0.00,,---,0.00,VWS V14.01,2013-01-29 20:30:00,
2013-01-29 14:36:00,32.5,30.4,29.65,NNE,25,6.0,16.0,92,0.00,,---,0.00,VWS V14.01,2013-01-29 20:36:00,
2013-01-29 14:42:00,32.6,30.3,29.65,NNW,345,10.0,17.0,91,0.00,,---,0.00,VWS V14.01,2013-01-29 20:42:00,
2013-01-29 14:48:00,32.7,30.4,29.64,NNW,346,5.0,17.0,91,0.00,,---,0.00,VWS V14.01,2013-01-29 20:48:00,
2013-01-29 14:54:00,32.7,30.4,29.65,NNW,343,8.0,17.0,91,0.00,,---,0.00,VWS V14.01,2013-01-29 20:54:00,
2013-01-29 15:01:00,32.6,30.3,29.65,NNE,17,8.0,17.0,91,0.00,,---,0.00,VWS V14.01,2013-01-29 21:01:00,
2013-01-29 15:07:00,32.7,30.1,29.65,NNW,327,8.0,17.0,90,0.00,,---,0.00,VWS V14.01,2013-01-29 21:07:00,
2013-01-29 15:13:00,32.7,30.1,29.64,North,10,12.0,17.0,90,0.00,,---,0.00,VWS V14.01,2013-01-29 21:13:00,
2013-01-29 15:19:00,32.8,30.2,29.64,NNW,342,16.0,17.0,90,0.00,,---,0.00,VWS V14.01,2013-01-29 21:19:00,
2013-01-29 15:25:00,32.9,30.0,29.64,North,360,9.0,17.0,89,0.00,,---,0.00,VWS V14.01,2013-01-29 21:25:00,
2013-01-29 15:31:00,33.0,30.1,29.64,North,360,10.0,17.0,89,0.00,,---,0.00,VWS V14.01,2013-01-29 21:31:00,
2013-01-29 15:37:00,33.0,30.1,29.65,NNW,336,6.0,19.0,89,0.00,,---,0.00,VWS V14.01,2013-01-29 21:37:00,
2013-01-29 15:43:00,33.0,30.1,29.64,NNW,343,8.0,19.0,89,0.00,,---,0.00,VWS V14.01,2013-01-29 21:43:00,
2013-01-29 15:49:00,33.2,30.3,29.65,NNW,340,7.0,19.0,89,0.00,,---,0.00,VWS V14.01,2013-01-29 21:49:00,
2013-01-29 15:55:00,33.3,30.4,29.66,North,360,3.0,19.0,89,0.00,,---,0.00,VWS V14.01,2013-01-29 21:55:00,
2013-01-29 16:01:00,33.3,30.4,29.67,North,5,9.0,19.0,89,0.00,,---,0.00,VWS V14.01,2013-01-29 22:01:00,
2013-01-29 16:07:00,33.4,30.5,29.67,North,355,4.0,11.0,89,0.00,,---,0.00,VWS V14.01,2013-01-29 22:07:00,
2013-01-29 16:13:00,33.5,30.6,29.66,NNW,329,7.0,13.0,89,0.00,,---,0.00,VWS V14.01,2013-01-29 22:13:00,
2013-01-29 16:19:00,33.5,30.6,29.66,North,360,7.0,14.0,89,0.00,,---,0.00,VWS V14.01,2013-01-29 22:19:00,
2013-01-29 16:25:00,33.6,30.7,29.66,North,350,10.0,14.0,89,0.00,,---,0.00,VWS V14.01,2013-01-29 22:25:00,
2013-01-29 16:31:00,33.7,30.8,29.65,NNE,17,9.0,14.0,89,0.00,,---,0.00,VWS V14.01,2013-01-29 22:31:00,
2013-01-29 16:37:00,33.7,30.8,29.64,NNW,348,3.0,11.0,89,0.00,,---,0.00,VWS V14.01,2013-01-29 22:37:00,
2013-01-29 16:43:00,33.7,30.8,29.64,North,355,6.0,11.0,89,0.00,,---,0.00,VWS V14.01,2013-01-29 22:43:00,
2013-01-29 16:49:00,33.7,30.8,29.64,North,355,7.0,16.0,89,0.00,,---,0.00,VWS V14.01,2013-01-29 22:49:00,
2013-01-29 16:55:00,33.8,31.2,29.64,North,350,5.0,16.0,90,0.00,,---,0.00,VWS V14.01,2013-01-29 22:55:00,
2013-01-29 17:01:00,33.9,31.3,29.65,North,355,5.0,16.0,90,0.00,,---,0.00,VWS V14.01,2013-01-29 23:01:00,
2013-01-29 17:08:00,34.0,31.4,29.66,NNE,28,4.0,15.0,90,0.00,,---,0.00,VWS V14.01,2013-01-29 23:08:00,
2013-01-29 17:14:00,34.1,31.2,29.66,NW,313,9.0,15.0,89,0.00,,---,0.00,VWS V14.01,2013-01-29 23:14:00,
2013-01-29 17:20:00,34.1,31.2,29.65,NNW,348,10.0,15.0,89,0.00,,---,0.00,VWS V14.01,2013-01-29 23:20:00,
2013-01-29 17:26:00,34.1,31.2,29.66,NNW,348,7.0,17.0,89,0.00,,---,0.00,VWS V14.01,2013-01-29 23:26:00,
2013-01-29 17:32:00,34.1,31.2,29.66,North,360,3.0,14.0,89,0.00,,---,0.00,VWS V14.01,2013-01-29 23:32:00,
2013-01-29 17:38:00,34.2,31.0,29.67,NNW,341,15.0,19.0,88,0.00,,---,0.00,VWS V14.01,2013-01-29 23:38:00,
2013-01-29 17:44:00,34.2,31.0,29.67,NW,306,5.0,19.0,88,0.00,,---,0.00,VWS V14.01,2013-01-29 23:44:00,
2013-01-29 17:50:00,34.2,31.0,29.66,North,5,5.0,19.0,88,0.00,,---,0.00,VWS V14.01,2013-01-29 23:50:00,
2013-01-29 17:56:00,34.2,31.0,29.66,NNE,14,5.0,19.0,88,0.00,,---,0.00,VWS V14.01,2013-01-29 23:56:00,
2013-01-29 18:02:00,34.1,30.9,29.67,North,360,7.0,13.0,88,0.00,,---,0.00,VWS V14.01,2013-01-30 00:02:00,
2013-01-29 18:08:00,34.1,30.9,29.67,North,11,9.0,13.0,88,0.00,,---,0.00,VWS V14.01,2013-01-30 00:08:00,
2013-01-29 18:14:00,34.1,30.9,29.65,North,360,7.0,14.0,88,0.00,,---,0.00,VWS V14.01,2013-01-30 00:14:00,
2013-01-29 18:20:00,34.1,30.6,29.65,NNE,14,5.0,18.0,87,0.00,,---,0.00,VWS V14.01,2013-01-30 00:20:00,
2013-01-29 18:26:00,34.1,30.6,29.65,North,351,8.0,18.0,87,0.00,,---,0.00,VWS V14.01,2013-01-30 00:26:00,
2013-01-29 18:32:00,34.1,30.6,29.65,North,355,8.0,13.0,87,0.00,,---,0.00,VWS V14.01,2013-01-30 00:32:00,
2013-01-29 18:38:00,34.0,30.5,29.66,NNE,22,5.0,13.0,87,0.00,,---,0.00,VWS V14.01,2013-01-30 00:38:00,
2013-01-29 18:44:00,34.0,30.5,29.67,North,355,5.0,13.0,87,0.00,,---,0.00,VWS V14.01,2013-01-30 00:44:00,
2013-01-29 18:50:00,33.9,30.5,29.68,North,360,5.0,13.0,87,0.00,,---,0.00,VWS V14.01,2013-01-30 00:50:00,
2013-01-29 18:57:00,33.9,30.5,29.67,NNW,346,8.0,13.0,87,0.00,,---,0.00,VWS V14.01,2013-01-30 00:57:00,
2013-01-29 19:03:00,33.8,30.6,29.67,North,10,8.0,10.0,88,0.00,,---,0.00,VWS V14.01,2013-01-30 01:03:00,
2013-01-29 19:09:00,33.8,30.6,29.67,NNE,22,7.0,12.0,88,0.00,,---,0.00,VWS V14.01,2013-01-30 01:09:00,
2013-01-29 19:15:00,33.7,30.8,29.67,North,355,7.0,12.0,89,0.00,,---,0.00,VWS V14.01,2013-01-30 01:15:00,
2013-01-29 19:21:00,33.7,30.8,29.67,NW,319,5.0,15.0,89,0.00,,---,0.00,VWS V14.01,2013-01-30 01:21:00,
2013-01-29 19:27:00,33.7,30.8,29.67,NNW,345,8.0,16.0,89,0.00,,---,0.00,VWS V14.01,2013-01-30 01:27:00,
2013-01-29 19:33:00,33.6,30.7,29.65,NNW,339,8.0,10.0,89,0.00,,---,0.00,VWS V14.01,2013-01-30 01:33:00,
2013-01-29 19:39:00,33.6,30.7,29.67,NNW,338,7.0,11.0,89,0.00,,---,0.00,VWS V14.01,2013-01-30 01:39:00,
2013-01-29 19:45:00,33.6,30.7,29.67,North,355,5.0,15.0,89,0.00,,---,0.00,VWS V14.01,2013-01-30 01:45:00,
2013-01-29 19:51:00,33.6,30.7,29.69,NNW,329,6.0,15.0,89,0.00,,---,0.00,VWS V14.01,2013-01-30 01:51:00,
2013-01-29 19:57:00,33.7,30.8,29.69,NNW,340,5.0,15.0,89,0.00,,---,0.00,VWS V14.01,2013-01-30 01:57:00,
2013-01-29 20:03:00,33.7,30.5,29.70,NW,319,5.0,7.0,88,0.00,,---,0.00,VWS V14.01,2013-01-30 02:03:00,
2013-01-29 20:09:00,33.7,30.8,29.69,NW,317,7.0,15.0,89,0.00,,---,0.00,VWS V14.01,2013-01-30 02:09:00,
2013-01-29 20:15:00,33.5,30.6,29.70,NW,325,7.0,15.0,89,0.00,,---,0.00,VWS V14.01,2013-01-30 02:15:00,
2013-01-29 20:21:00,33.5,30.9,29.71,NW,319,6.0,15.0,90,0.00,,---,0.00,VWS V14.01,2013-01-30 02:21:00,
2013-01-29 20:27:00,33.5,30.9,29.72,NNW,334,9.0,15.0,90,0.00,,---,0.00,VWS V14.01,2013-01-30 02:27:00,
2013-01-29 20:33:00,33.5,30.9,29.71,NNW,338,7.0,13.0,90,0.00,,---,0.00,VWS V14.01,2013-01-30 02:33:00,
2013-01-29 20:39:00,33.5,30.9,29.70,NNW,342,4.0,13.0,90,0.00,,---,0.00,VWS V14.01,2013-01-30 02:39:00,
2013-01-29 20:45:00,33.4,30.8,29.70,NW,309,16.0,16.0,90,0.00,,---,0.00,VWS V14.01,2013-01-30 02:45:00,
2013-01-29 20:51:00,33.3,30.7,29.71,NNW,340,5.0,16.0,90,0.00,,---,0.00,VWS V14.01,2013-01-30 02:51:00,
2013-01-29 20:57:00,33.3,30.7,29.70,NW,321,4.0,16.0,90,0.00,,---,0.00,VWS V14.01,2013-01-30 02:57:00,
2013-01-29 21:03:00,33.2,30.6,29.69,NW,326,16.0,19.0,90,0.00,,---,0.00,VWS V14.01,2013-01-30 03:03:00,
2013-01-29 21:10:00,33.1,30.2,29.65,NW,316,17.0,19.0,89,0.00,,---,0.00,VWS V14.01,2013-01-30 03:10:00,
2013-01-29 21:16:00,33.0,30.1,29.67,NNW,333,11.0,19.0,89,0.00,,---,0.00,VWS V14.01,2013-01-30 03:16:00,
2013-01-29 21:22:00,33.0,30.1,29.65,NNW,348,15.0,19.0,89,0.00,,---,0.00,VWS V14.01,2013-01-30 03:22:00,
2013-01-29 21:28:00,32.9,29.7,29.67,NNW,338,7.0,21.0,88,0.00,,---,0.00,VWS V14.01,2013-01-30 03:28:00,
2013-01-29 21:34:00,32.9,29.7,29.66,NNW,338,7.0,14.0,88,0.00,,---,0.00,VWS V14.01,2013-01-30 03:34:00,
2013-01-29 21:40:00,32.9,29.5,29.65,NNW,335,14.0,22.0,87,0.00,,---,0.00,VWS V14.01,2013-01-30 03:40:00,
2013-01-29 21:46:00,32.8,29.6,29.63,North,5,15.0,22.0,88,0.00,,---,0.00,VWS V14.01,2013-01-30 03:46:00,
2013-01-29 21:52:00,32.7,29.5,29.64,North,355,9.0,22.0,88,0.00,,---,0.00,VWS V14.01,2013-01-30 03:52:00,
2013-01-29 21:58:00,32.6,29.5,29.65,NW,322,13.0,23.0,88,0.00,,---,0.00,VWS V14.01,2013-01-30 03:58:00,
2013-01-29 22:04:00,32.6,29.5,29.66,North,351,10.0,16.0,88,0.00,,---,0.00,VWS V14.01,2013-01-30 04:04:00,
2013-01-29 22:10:00,32.4,29.5,29.66,NW,323,10.0,16.0,89,0.00,,---,0.00,VWS V14.01,2013-01-30 04:10:00,
2013-01-29 22:16:00,32.2,29.3,29.68,NW,321,9.0,18.0,89,0.00,,---,0.00,VWS V14.01,2013-01-30 04:16:00,
2013-01-29 22:22:00,32.1,29.2,29.68,NNW,344,4.0,18.0,89,0.00,,---,0.00,VWS V14.01,2013-01-30 04:22:00,
2013-01-29 22:28:00,32.0,29.1,29.68,NNW,343,7.0,19.0,89,0.00,,---,0.00,VWS V14.01,2013-01-30 04:28:00,
2013-01-29 22:34:00,31.9,29.0,29.67,North,360,9.0,16.0,89,0.00,,---,0.00,VWS V14.01,2013-01-30 04:34:00,
2013-01-29 22:40:00,31.9,29.0,29.67,North,355,8.0,20.0,89,0.00,,---,0.00,VWS V14.01,2013-01-30 04:40:00,
2013-01-29 22:46:00,31.9,28.8,29.66,NNW,334,8.0,20.0,88,0.00,,---,0.00,VWS V14.01,2013-01-30 04:46:00,
2013-01-29 22:52:00,31.9,28.8,29.67,NNW,343,14.0,21.0,88,0.00,,---,0.00,VWS V14.01,2013-01-30 04:52:00,
2013-01-29 22:58:00,31.9,28.8,29.67,North,360,9.0,21.0,88,0.00,,---,0.00,VWS V14.01,2013-01-30 04:58:00,
2013-01-29 23:00:00,31.8,28.7,29.67,North,355,12.0,21.0,88,0.00,,---,0.00,VWS V14.01,2013-01-30 05:00:00,
2013-01-29 23:05:00,31.5,28.6,29.67,North,9,11.0,15.0,89,0.00,,---,0.00,VWS V14.01,2013-01-30 05:05:00,
2013-01-29 23:07:00,31.4,28.8,29.67,NW,326,6.0,20.0,90,0.00,,---,0.00,VWS V14.01,2013-01-30 05:07:00,
2013-01-29 23:13:00,31.1,28.5,29.69,NNW,342,7.0,20.0,90,0.00,,---,0.00,VWS V14.01,2013-01-30 05:13:00,
2013-01-29 23:19:00,30.9,28.6,29.69,North,360,7.0,20.0,91,0.00,,---,0.00,VWS V14.01,2013-01-30 05:19:00,
2013-01-29 23:25:00,30.8,28.8,29.68,NNW,340,7.0,20.0,92,0.00,,---,0.00,VWS V14.01,2013-01-30 05:25:00,
2013-01-29 23:31:00,30.7,28.7,29.67,NNW,331,21.0,21.0,92,0.00,,---,0.00,VWS V14.01,2013-01-30 05:31:00,
2013-01-29 23:37:00,30.4,28.4,29.66,NNW,345,4.0,23.0,92,0.00,,---,0.00,VWS V14.01,2013-01-30 05:37:00,
2013-01-29 23:43:00,30.3,28.3,29.66,NNW,338,7.0,23.0,92,0.00,,---,0.00,VWS V14.01,2013-01-30 05:43:00,
2013-01-29 23:49:00,30.4,28.4,29.65,NW,325,7.0,23.0,92,0.00,,---,0.00,VWS V14.01,2013-01-30 05:49:00,
2013-01-29 23:55:00,30.3,28.5,29.64,NW,326,8.0,23.0,93,0.00,,---,0.00,VWS V14.01,2013-01-30 05:55:00,